Regional Weather Roundup
Issued by NWS

Home | Current Version | Previous Version | Graphics & Text | Print | Product List | Glossary On
Versions: 1 2 3 4 5 6 7 8 9 10 11 12 13 14 15 16 17 18 19 20 21 22 23 24 25 26 27 28 29 30 31 32 33 34 35 36 37 38 39 40 41 42 43 44 45 46 47 48 49 50
000
ASUS43 KDMX 191607
RWRIA

WEATHER ROUNDUP FOR IOWA
NATIONAL WEATHER SERVICE DES MOINES IA
1000 AM CST FRI DEC 19 2014

NOTE: "FAIR" INDICATES FEW OR NO CLOUDS BELOW 12,000 FEET WITH NO
SIGNIFICANT WEATHER AND/OR OBSTRUCTIONS TO VISIBILITY.

* - THESE STATIONS ARE NOT NWS STATIONS...THUS NOT UNDER NWS
QUALITY CONTROL.  THEY ALSO DO NOT REPORT WEATHER SUCH
AS PRECIPITATION OR FOG.

IAZ001>003-012>014-020>022-031>034-043>046-191700-
   NORTHWEST IOWA

CITY           SKY/WX    TMP DP  RH WIND       PRES   REMARKS
CARROLL *      CLOUDY    30  30 100 S7        30.24R FOG     WCI  23
CHEROKEE *     CLOUDY    30  30 100 S8        30.20S FOG     WCI  23
DENISON *      CLOUDY    30  30 100 S8        30.21R FOG     WCI  23
LE MARS *      CLOUDY    32  30  93 S10G16    30.19S FOG     WCI  24
ORANGE CITY *  CLOUDY    30  28  93 S9        30.17S FOG     WCI  22
SHELDON *      CLOUDY    30  30 100 S10       30.17S FOG     WCI  21
SIOUX CITY     CLOUDY    32  29  88 SE8       30.20S FOG     WCI  25
SPENCER        CLOUDY    31  27  85 S10       30.19S FOG     WCI  22
STORM LAKE *   CLOUDY    30  30 100 S12       30.20S FOG     WCI  21
$$

IAZ055>058-069>071-079>083-090>094-191700-
   SOUTHWEST IOWA

CITY           SKY/WX    TMP DP  RH WIND       PRES   REMARKS
ATLANTIC *     CLOUDY    30  30 100 S8        30.25R FOG     WCI  23
AUDUBON *      PTSUNNY   30  25  80 S7        30.25R HAZE    WCI  23
CLARINDA *     CLOUDY    30  30 100 SE5       30.28S FOG     WCI  25
COUNCIL BLFS * CLOUDY    30  32 100 S8        30.23R FOG     WCI  23
CRESTON *      CLOUDY    28  30 100 SE7       30.26S FOG     WCI  21
HARLAN  *      CLOUDY    30  30 100 S8        30.27R FOG     WCI  23
LAMONI         CLOUDY    29  28  96 S5        30.27S FOG     WCI  24
RED OAK *      CLOUDY    32  30  93 S6        30.26S FOG     WCI  26
SHENANDOAH *   CLOUDY    32  30  93 S7        30.27S FOG     WCI  26
$$

IAZ047>049-059>061-072>074-084-191700-
   CENTRAL IOWA

CITY           SKY/WX    TMP DP  RH WIND       PRES   REMARKS
AMES           CLOUDY    28  25  88 SE7       30.28R FOG     WCI  21
ANKENY *       CLOUDY    30  27  86 SE6       30.29R WCI  24
CHARITON *     CLOUDY    30  28  93 SE5       30.28S WCI  25
DES MOINES     CLOUDY    30  26  85 SE7       30.29R FOG     WCI  23
GRINNELL*      CLOUDY    28  23  80 SE5       30.30R WCI  23
KNOXVILLE *    CLOUDY    28  25  86 S5        30.28S WCI  23
MARSHALLTOWN   CLOUDY    27  23  85 SE6       30.28R WCI  20
PELLA *        CLOUDY    28  27  93 SE5       30.31S FOG     WCI  23
PERRY *        CLOUDY    30  30 100 S8        30.26R FOG     WCI  23
$$

IAZ004>006-015-016-023>025-035-036-191700-
   NORTH CENTRAL IOWA

CITY           SKY/WX    TMP DP  RH WIND       PRES   REMARKS
ALGONA *       CLOUDY    28  28 100 S12       30.23S FOG     WCI  18
CLARION *      CLOUDY    28  28 100 S8        30.24S FOG     WCI  20
ESTHERVILLE    CLOUDY    28  27  96 S13       30.19S FOG     WCI  17
FORT DODGE *   CLOUDY    28  27  93 S6        30.24S WCI  22
MASON CITY     CLOUDY    26  22  84 S10       30.26R WCI  16
FOREST CITY *  CLOUDY    28  25  86 S9        30.23S FOG     WCI  20
IOWA FALLS *   CLOUDY    28  25  86 SE9       30.27R WCI  20
$$

IAZ007>011-017>019-026>030-037>042-050>054-066-191700-
   NORTHEAST IOWA

CITY           SKY/WX    TMP DP  RH WIND       PRES   REMARKS
CEDAR RAPIDS   CLOUDY    26  21  81 S5        30.31R HAZE    WCI  20
CHARLES CITY * CLOUDY    27  23  86 SE8       30.27R WCI  18
CLINTON *      CLOUDY    23  19  86 SW5       30.37R WCI  17
DECORAH *      CLOUDY    25  19  80 SE5       30.26S WCI  19
DUBUQUE        CLOUDY    25  20  81 S5        30.31R WCI  19
MONTICELLO *   CLOUDY    25  23  93 SE7       30.32R WCI  17
OELWEIN *      CLOUDY    27  21  80 SE9       30.30R WCI  17
WATERLOO       CLOUDY    26  20  77 S8        30.29R WCI  18
$$

IAZ064-065-067-068-078-191700-
   EAST CENTRAL IOWA

CITY           SKY/WX    TMP DP  RH WIND       PRES   REMARKS
DAVENPORT      CLOUDY    25  19  78 SE6       30.34R WCI  18
IOWA CITY      CLOUDY    26  20  77 SE7       30.35R WCI  18
MT. PLEASANT * CLOUDY    28  23  80 SE5       30.33S WCI  23
MUSCATINE *    CLOUDY    27  19  74 SE5       30.35S WCI  21
QUAD CITIES    CLOUDY    26  20  77 E5        30.35R WCI  20
$$

IAZ062-063-075>077-085>089-095>099-191700-
   SOUTHEAST IOWA

CITY           SKY/WX    TMP DP  RH WIND       PRES   REMARKS
BURLINGTON     CLOUDY    28  22  78 E6        30.33R WCI  22
FAIRFIELD *    CLOUDY    28  23  80 SE7       30.32S WCI  21
FORT MADISON * CLOUDY    30  27  86 E3        30.33S
KEOKUK *       CLOUDY    30  25  80 E8        30.32R WCI  23
OSKALOOSA *    CLOUDY    28  25  86 SE7       30.31R WCI  21
CENTERVILLE *  CLOUDY    28  28 100 E3        30.30S
OTTUMWA        CLOUDY    28  24  85 SE6       30.30R WCI  22
WASHINGTON *   CLOUDY    28  27  93 SE6       30.32S WCI  22
$$

ABBREVIATIONS USED IN REMARKS
   TC - TEMPERATURES IN CELSIUS
  WCI - WIND CHILL INDEX
   HX - HEAT INDEX
  VSB - VISIBILITY
$$



USA.gov is the U.S. government's official web portal to all federal, state and local government web resources and services.